Time,TemperatureF,DewpointF,PressureIn,WindDirection,WindDirectionDegrees,WindSpeedMPH,WindSpeedGustMPH,Humidity,HourlyPrecipIn,Conditions,Clouds,dailyrainin,SoftwareType,DateUTC
2015-05-06 00:04:00,43.8,42.5,30.09,East,84,0.0,1.0,95,0.00,,,0.00,VWS V15.00,2015-05-06 07:04:00,
2015-05-06 00:09:00,43.8,42.7,30.10,East,96,1.0,1.0,96,0.00,,,0.00,VWS V15.00,2015-05-06 07:09:00,
2015-05-06 00:14:00,43.8,42.7,30.09,East,96,0.0,0.0,96,0.00,,,0.00,VWS V15.00,2015-05-06 07:14:00,
2015-05-06 00:19:00,43.8,42.7,30.09,East,96,0.0,1.0,96,0.00,,,0.00,VWS V15.00,2015-05-06 07:19:00,
2015-05-06 00:24:00,43.8,42.7,30.10,East,96,0.0,0.0,96,0.00,,,0.00,VWS V15.00,2015-05-06 07:24:00,
2015-05-06 00:29:00,43.8,42.7,30.09,East,96,0.0,0.0,96,0.00,,,0.00,VWS V15.00,2015-05-06 07:29:00,
2015-05-06 00:34:00,43.9,42.8,30.10,East,96,0.0,0.0,96,0.00,,,0.00,VWS V15.00,2015-05-06 07:34:00,
2015-05-06 00:39:00,43.9,42.8,30.10,East,96,0.0,1.0,96,0.00,,,0.00,VWS V15.00,2015-05-06 07:39:00,
2015-05-06 00:44:00,44.0,42.9,30.10,East,84,1.0,1.0,96,0.00,,,0.00,VWS V15.00,2015-05-06 07:44:00,
2015-05-06 00:49:00,44.0,42.9,30.10,East,85,1.0,2.0,96,0.00,,,0.00,VWS V15.00,2015-05-06 07:49:00,
2015-05-06 00:54:00,44.0,42.9,30.10,ESE,103,1.0,2.0,96,0.00,,,0.00,VWS V15.00,2015-05-06 07:54:00,
2015-05-06 00:59:00,44.0,42.9,30.10,ESE,103,0.0,0.0,96,0.00,,,0.00,VWS V15.00,2015-05-06 07:59:00,
2015-05-06 01:04:00,43.9,42.8,30.10,ESE,103,0.0,0.0,96,0.00,,,0.00,VWS V15.00,2015-05-06 08:04:00,
2015-05-06 01:09:00,43.8,42.7,30.10,ESE,103,0.0,0.0,96,0.00,,,0.00,VWS V15.00,2015-05-06 08:09:00,
2015-05-06 01:14:00,43.7,42.6,30.10,ESE,103,0.0,1.0,96,0.00,,,0.00,VWS V15.00,2015-05-06 08:14:00,
2015-05-06 01:19:00,43.6,42.5,30.10,ESE,104,0.0,0.0,96,0.00,,,0.00,VWS V15.00,2015-05-06 08:19:00,
2015-05-06 01:24:00,43.5,42.4,30.09,ESE,103,0.0,0.0,96,0.00,,,0.00,VWS V15.00,2015-05-06 08:24:00,
2015-05-06 01:29:00,43.4,42.3,30.10,ESE,103,0.0,0.0,96,0.00,,,0.00,VWS V15.00,2015-05-06 08:29:00,
2015-05-06 01:34:00,43.3,42.2,30.10,ESE,103,0.0,0.0,96,0.00,,,0.00,VWS V15.00,2015-05-06 08:34:00,
2015-05-06 01:39:00,43.4,42.3,30.09,ESE,103,0.0,0.0,96,0.00,,,0.00,VWS V15.00,2015-05-06 08:39:00,
2015-05-06 01:44:00,43.4,42.3,30.10,ESE,104,0.0,0.0,96,0.00,,,0.00,VWS V15.00,2015-05-06 08:44:00,
2015-05-06 01:49:00,43.4,42.3,30.10,ESE,104,0.0,0.0,96,0.00,,,0.00,VWS V15.00,2015-05-06 08:49:00,
2015-05-06 01:54:00,43.4,42.6,30.10,ESE,103,0.0,0.0,97,0.00,,,0.00,VWS V15.00,2015-05-06 08:54:00,
2015-05-06 01:59:00,43.4,42.6,30.10,ESE,103,0.0,0.0,97,0.00,,,0.00,VWS V15.00,2015-05-06 08:59:00,
2015-05-06 02:04:00,43.5,42.7,30.09,ESE,104,0.0,0.0,97,0.00,,,0.00,VWS V15.00,2015-05-06 09:04:00,
2015-05-06 02:09:00,43.6,42.8,30.09,ESE,103,0.0,0.0,97,0.00,,,0.00,VWS V15.00,2015-05-06 09:09:00,
2015-05-06 02:14:00,43.7,42.9,30.10,ESE,103,0.0,0.0,97,0.00,,,0.00,VWS V15.00,2015-05-06 09:14:00,
2015-05-06 02:19:00,43.7,42.9,30.09,ESE,103,0.0,0.0,97,0.00,,,0.00,VWS V15.00,2015-05-06 09:19:00,
2015-05-06 02:24:00,43.8,43.0,30.09,ESE,103,0.0,0.0,97,0.00,,,0.00,VWS V15.00,2015-05-06 09:24:00,
2015-05-06 02:29:00,43.8,43.0,30.09,ESE,104,0.0,0.0,97,0.00,,,0.00,VWS V15.00,2015-05-06 09:29:00,
2015-05-06 02:34:00,43.9,43.1,30.09,ESE,104,0.0,0.0,97,0.00,,,0.00,VWS V15.00,2015-05-06 09:34:00,
2015-05-06 02:39:00,43.8,43.0,30.09,ESE,103,0.0,0.0,97,0.00,,,0.00,VWS V15.00,2015-05-06 09:39:00,
2015-05-06 02:44:00,43.8,43.0,30.09,ESE,103,0.0,0.0,97,0.00,,,0.00,VWS V15.00,2015-05-06 09:44:00,
2015-05-06 02:49:00,43.9,43.1,30.09,ESE,103,0.0,0.0,97,0.00,,,0.00,VWS V15.00,2015-05-06 09:49:00,
2015-05-06 02:54:00,43.8,43.0,30.09,ESE,103,0.0,0.0,97,0.00,,,0.00,VWS V15.00,2015-05-06 09:54:00,
2015-05-06 02:59:00,43.7,42.9,30.09,ESE,103,0.0,0.0,97,0.00,,,0.00,VWS V15.00,2015-05-06 09:59:00,
2015-05-06 03:04:00,43.6,42.5,30.09,ESE,103,0.0,0.0,96,0.00,,,0.00,VWS V15.00,2015-05-06 10:04:00,
2015-05-06 03:09:00,43.4,42.3,30.09,ESE,103,0.0,0.0,96,0.00,,,0.00,VWS V15.00,2015-05-06 10:09:00,
2015-05-06 03:14:00,43.3,42.5,30.09,ESE,104,0.0,0.0,97,0.00,,,0.00,VWS V15.00,2015-05-06 10:14:00,
2015-05-06 03:19:00,43.3,42.5,30.09,ESE,104,0.0,0.0,97,0.00,,,0.00,VWS V15.00,2015-05-06 10:19:00,
2015-05-06 03:24:00,43.2,42.4,30.09,ESE,103,0.0,0.0,97,0.00,,,0.00,VWS V15.00,2015-05-06 10:24:00,
2015-05-06 03:29:00,43.2,42.4,30.09,ESE,104,0.0,0.0,97,0.00,,,0.00,VWS V15.00,2015-05-06 10:29:00,
2015-05-06 03:34:00,43.1,42.3,30.09,ESE,103,0.0,0.0,97,0.00,,,0.00,VWS V15.00,2015-05-06 10:34:00,
2015-05-06 03:39:00,43.2,42.4,30.09,ESE,104,0.0,0.0,97,0.00,,,0.00,VWS V15.00,2015-05-06 10:39:00,
2015-05-06 03:44:00,43.3,42.5,30.09,ESE,104,0.0,0.0,97,0.00,,,0.00,VWS V15.00,2015-05-06 10:44:00,
2015-05-06 03:49:00,43.4,42.6,30.09,ESE,103,0.0,0.0,97,0.00,,,0.00,VWS V15.00,2015-05-06 10:49:00,
2015-05-06 03:54:00,43.6,42.8,30.09,East,82,0.0,1.0,97,0.00,,,0.00,VWS V15.00,2015-05-06 10:54:00,
2015-05-06 03:59:00,43.7,42.9,30.09,East,82,0.0,0.0,97,0.00,,,0.00,VWS V15.00,2015-05-06 10:59:00,
2015-05-06 04:04:00,43.9,43.1,30.09,East,82,0.0,0.0,97,0.00,,,0.00,VWS V15.00,2015-05-06 11:04:00,
2015-05-06 04:09:00,44.1,43.3,30.09,ENE,73,0.0,1.0,97,0.00,,,0.00,VWS V15.00,2015-05-06 11:09:00,
2015-05-06 04:14:00,44.3,43.5,30.09,ESE,102,0.0,1.0,97,0.00,,,0.00,VWS V15.00,2015-05-06 11:14:00,
2015-05-06 04:19:00,44.3,43.5,30.09,ESE,104,0.0,1.0,97,0.00,,,0.00,VWS V15.00,2015-05-06 11:19:00,
2015-05-06 04:24:00,44.3,43.5,30.09,ESE,104,0.0,0.0,97,0.00,,,0.00,VWS V15.00,2015-05-06 11:24:00,
2015-05-06 04:29:00,44.1,43.3,30.09,ESE,104,0.0,0.0,97,0.00,,,0.00,VWS V15.00,2015-05-06 11:29:00,
2015-05-06 04:34:00,44.0,43.2,30.09,ESE,104,0.0,1.0,97,0.00,,,0.00,VWS V15.00,2015-05-06 11:34:00,
2015-05-06 04:39:00,43.9,43.1,30.09,ESE,104,0.0,0.0,97,0.00,,,0.00,VWS V15.00,2015-05-06 11:39:00,
2015-05-06 04:44:00,43.7,42.9,30.09,ESE,104,0.0,0.0,97,0.00,,,0.00,VWS V15.00,2015-05-06 11:44:00,
2015-05-06 04:49:00,43.7,42.9,30.09,ESE,103,0.0,0.0,97,0.00,,,0.00,VWS V15.00,2015-05-06 11:49:00,
2015-05-06 04:54:00,43.7,42.9,30.09,ESE,103,0.0,0.0,97,0.00,,,0.00,VWS V15.00,2015-05-06 11:54:00,
2015-05-06 04:59:00,43.7,42.9,30.09,ESE,103,0.0,0.0,97,0.00,,,0.00,VWS V15.00,2015-05-06 11:59:00,
2015-05-06 05:04:00,43.7,42.9,30.09,ESE,103,0.0,0.0,97,0.00,,,0.00,VWS V15.00,2015-05-06 12:04:00,
2015-05-06 05:09:00,43.9,43.1,30.09,ESE,104,0.0,0.0,97,0.00,,,0.00,VWS V15.00,2015-05-06 12:09:00,
2015-05-06 05:14:00,43.9,43.1,30.09,ESE,104,0.0,0.0,97,0.00,,,0.00,VWS V15.00,2015-05-06 12:14:00,
2015-05-06 05:19:00,43.9,43.1,30.09,ESE,103,0.0,0.0,97,0.00,,,0.00,VWS V15.00,2015-05-06 12:19:00,
2015-05-06 05:24:00,44.0,43.2,30.09,ESE,103,0.0,0.0,97,0.00,,,0.00,VWS V15.00,2015-05-06 12:24:00,
2015-05-06 05:29:00,43.9,43.1,30.09,ESE,104,0.0,0.0,97,0.00,,,0.00,VWS V15.00,2015-05-06 12:29:00,
2015-05-06 05:34:00,44.1,43.6,30.09,ESE,104,0.0,1.0,98,0.00,,,0.00,VWS V15.00,2015-05-06 12:34:00,
2015-05-06 05:39:00,44.0,43.2,30.09,ESE,104,0.0,0.0,97,0.00,,,0.00,VWS V15.00,2015-05-06 12:39:00,
2015-05-06 05:44:00,43.9,43.1,30.09,ESE,103,0.0,0.0,97,0.01,,,0.01,VWS V15.00,2015-05-06 12:44:00,
2015-05-06 05:49:00,43.9,43.1,30.09,ESE,103,0.0,0.0,97,0.01,,,0.01,VWS V15.00,2015-05-06 12:49:00,
2015-05-06 05:54:00,43.7,42.9,30.10,ESE,103,0.0,0.0,97,0.01,,,0.01,VWS V15.00,2015-05-06 12:54:00,
2015-05-06 05:59:00,43.7,42.9,30.10,ESE,103,0.0,1.0,97,0.01,,,0.01,VWS V15.00,2015-05-06 12:59:00,
2015-05-06 06:04:00,43.7,42.9,30.10,NE,42,0.0,1.0,97,0.01,,,0.01,VWS V15.00,2015-05-06 13:04:00,
2015-05-06 06:09:00,43.9,43.4,30.10,NE,42,0.0,0.0,98,0.01,,,0.01,VWS V15.00,2015-05-06 13:09:00,
2015-05-06 06:14:00,44.0,43.5,30.10,NE,41,1.0,1.0,98,0.01,,,0.01,VWS V15.00,2015-05-06 13:14:00,
2015-05-06 06:19:00,44.2,43.4,30.10,NE,41,0.0,0.0,97,0.01,,,0.01,VWS V15.00,2015-05-06 13:19:00,
2015-05-06 06:24:00,44.3,43.5,30.11,NE,41,0.0,0.0,97,0.01,,,0.01,VWS V15.00,2015-05-06 13:24:00,
2015-05-06 06:29:00,44.5,43.7,30.11,NE,41,0.0,0.0,97,0.01,,,0.01,VWS V15.00,2015-05-06 13:29:00,
2015-05-06 06:34:00,44.5,43.7,30.11,NE,41,0.0,1.0,97,0.01,,,0.01,VWS V15.00,2015-05-06 13:34:00,
2015-05-06 06:39:00,44.6,43.8,30.11,NE,41,0.0,0.0,97,0.01,,,0.01,VWS V15.00,2015-05-06 13:39:00,
2015-05-06 06:44:00,44.8,44.0,30.11,NE,41,0.0,0.0,97,0.00,,,0.01,VWS V15.00,2015-05-06 13:44:00,
2015-05-06 06:49:00,44.9,44.1,30.11,North,4,0.0,1.0,97,0.00,,,0.01,VWS V15.00,2015-05-06 13:49:00,
2015-05-06 06:54:00,44.9,44.1,30.11,NNW,333,0.0,2.0,97,0.00,,,0.01,VWS V15.00,2015-05-06 13:54:00,
2015-05-06 06:59:00,45.0,44.2,30.11,NW,325,1.0,1.0,97,0.00,,,0.01,VWS V15.00,2015-05-06 13:59:00,
2015-05-06 07:04:00,45.1,44.3,30.11,West,263,0.0,1.0,97,0.00,,,0.01,VWS V15.00,2015-05-06 14:04:00,
2015-05-06 07:09:00,45.1,44.3,30.11,West,262,0.0,0.0,97,0.00,,,0.01,VWS V15.00,2015-05-06 14:09:00,
2015-05-06 07:14:00,45.1,44.3,30.12,West,262,0.0,0.0,97,0.00,,,0.01,VWS V15.00,2015-05-06 14:14:00,
2015-05-06 07:19:00,45.2,44.4,30.12,WNW,297,0.0,1.0,97,0.00,,,0.01,VWS V15.00,2015-05-06 14:19:00,
2015-05-06 07:24:00,45.1,44.3,30.12,NNW,328,0.0,1.0,97,0.00,,,0.01,VWS V15.00,2015-05-06 14:24:00,
2015-05-06 07:29:00,45.2,44.4,30.12,NNW,328,0.0,0.0,97,0.00,,,0.01,VWS V15.00,2015-05-06 14:29:00,
2015-05-06 07:34:00,45.5,44.7,30.12,NNW,328,0.0,0.0,97,0.00,,,0.01,VWS V15.00,2015-05-06 14:34:00,
2015-05-06 07:39:00,45.7,44.9,30.12,NNW,328,0.0,1.0,97,0.00,,,0.01,VWS V15.00,2015-05-06 14:39:00,
2015-05-06 07:43:00,45.7,44.6,30.12,NNW,328,1.0,1.0,96,0.00,,,0.01,VWS V15.00,2015-05-06 14:43:00,
2015-05-06 07:48:00,45.5,44.4,30.12,NW,311,1.0,2.0,96,0.00,,,0.01,VWS V15.00,2015-05-06 14:48:00,
2015-05-06 07:53:00,45.5,44.4,30.12,NNW,328,0.0,1.0,96,0.00,,,0.01,VWS V15.00,2015-05-06 14:53:00,
2015-05-06 07:58:00,45.5,44.4,30.12,NNW,338,0.0,0.0,96,0.00,,,0.01,VWS V15.00,2015-05-06 14:58:00,
2015-05-06 08:03:00,45.5,44.4,30.12,NW,325,1.0,1.0,96,0.00,,,0.01,VWS V15.00,2015-05-06 15:03:00,
2015-05-06 08:08:00,45.6,44.5,30.13,NW,321,0.0,0.0,96,0.00,,,0.01,VWS V15.00,2015-05-06 15:08:00,
2015-05-06 08:13:00,45.6,44.5,30.13,NNW,334,1.0,1.0,96,0.00,,,0.01,VWS V15.00,2015-05-06 15:13:00,
2015-05-06 08:18:00,45.8,44.7,30.13,NW,320,1.0,1.0,96,0.00,,,0.01,VWS V15.00,2015-05-06 15:18:00,
2015-05-06 08:23:00,45.8,44.7,30.13,NNW,336,0.0,1.0,96,0.00,,,0.01,VWS V15.00,2015-05-06 15:23:00,
2015-05-06 08:28:00,45.9,44.8,30.13,WNW,288,2.0,2.0,96,0.00,,,0.01,VWS V15.00,2015-05-06 15:28:00,
2015-05-06 08:33:00,46.0,44.7,30.13,NW,317,1.0,1.0,95,0.00,,,0.01,VWS V15.00,2015-05-06 15:33:00,
2015-05-06 08:38:00,46.1,44.5,30.13,WNW,298,2.0,3.0,94,0.00,,,0.01,VWS V15.00,2015-05-06 15:38:00,
2015-05-06 08:43:00,46.2,44.3,30.13,NW,319,1.0,3.0,93,0.00,,,0.01,VWS V15.00,2015-05-06 15:43:00,
2015-05-06 08:48:00,46.4,44.2,30.13,NW,314,4.0,4.0,92,0.00,,,0.01,VWS V15.00,2015-05-06 15:48:00,
2015-05-06 08:53:00,46.4,43.9,30.13,NNW,328,1.0,2.0,91,0.00,,,0.01,VWS V15.00,2015-05-06 15:53:00,
2015-05-06 08:58:00,46.7,44.5,30.13,NNW,333,1.0,1.0,92,0.00,,,0.01,VWS V15.00,2015-05-06 15:58:00,
2015-05-06 09:03:00,46.9,44.1,30.13,NW,316,0.0,2.0,90,0.00,,,0.01,VWS V15.00,2015-05-06 16:03:00,
2015-05-06 09:08:00,47.0,43.9,30.13,WNW,302,0.0,1.0,89,0.00,,,0.01,VWS V15.00,2015-05-06 16:08:00,
2015-05-06 09:13:00,47.3,45.1,30.13,West,268,0.0,1.0,92,0.00,,,0.01,VWS V15.00,2015-05-06 16:13:00,
2015-05-06 09:18:00,47.4,45.2,30.13,West,266,0.0,1.0,92,0.00,,,0.01,VWS V15.00,2015-05-06 16:18:00,
2015-05-06 09:23:00,47.5,45.6,30.13,WNW,293,1.0,2.0,93,0.00,,,0.01,VWS V15.00,2015-05-06 16:23:00,
2015-05-06 09:28:00,47.4,45.2,30.13,NNW,332,0.0,1.0,92,0.00,,,0.01,VWS V15.00,2015-05-06 16:28:00,
2015-05-06 09:33:00,47.7,45.8,30.13,NW,315,0.0,0.0,93,0.00,,,0.01,VWS V15.00,2015-05-06 16:33:00,
2015-05-06 09:38:00,47.6,44.5,30.13,NW,311,2.0,3.0,89,0.00,,,0.01,VWS V15.00,2015-05-06 16:38:00,
2015-05-06 09:43:00,47.6,44.2,30.13,NNW,329,0.0,1.0,88,0.00,,,0.01,VWS V15.00,2015-05-06 16:43:00,
2015-05-06 09:48:00,47.7,44.0,30.13,WNW,300,0.0,3.0,87,0.00,,,0.01,VWS V15.00,2015-05-06 16:48:00,
2015-05-06 09:53:00,47.8,44.1,30.13,ENE,60,0.0,2.0,87,0.00,,,0.01,VWS V15.00,2015-05-06 16:53:00,
2015-05-06 09:58:00,48.0,44.3,30.13,East,99,2.0,2.0,87,0.00,,,0.01,VWS V15.00,2015-05-06 16:58:00,
2015-05-06 10:03:00,48.3,44.3,30.13,East,94,1.0,2.0,86,0.00,,,0.01,VWS V15.00,2015-05-06 17:03:00,
2015-05-06 10:08:00,48.6,44.6,30.13,NE,41,0.0,3.0,86,0.00,,,0.01,VWS V15.00,2015-05-06 17:08:00,
2015-05-06 10:13:00,48.9,44.3,30.13,ENE,65,3.0,3.0,84,0.00,,,0.01,VWS V15.00,2015-05-06 17:13:00,
2015-05-06 10:18:00,48.8,44.8,30.13,NNW,329,0.0,1.0,86,0.00,,,0.01,VWS V15.00,2015-05-06 17:18:00,
2015-05-06 10:23:00,49.2,44.3,30.13,NNE,23,3.0,6.0,83,0.00,,,0.01,VWS V15.00,2015-05-06 17:23:00,
2015-05-06 10:28:00,49.5,44.6,30.13,North,3,2.0,2.0,83,0.00,,,0.01,VWS V15.00,2015-05-06 17:28:00,
2015-05-06 10:33:00,49.7,44.4,30.13,NNW,330,2.0,3.0,82,0.00,,,0.01,VWS V15.00,2015-05-06 17:33:00,
2015-05-06 10:38:00,49.9,44.0,30.13,NW,312,0.0,1.0,80,0.00,,,0.01,VWS V15.00,2015-05-06 17:38:00,
2015-05-06 10:43:00,50.4,44.5,30.13,NW,312,2.0,4.0,80,0.00,,,0.01,VWS V15.00,2015-05-06 17:43:00,
2015-05-06 10:48:00,50.2,44.0,30.13,NW,323,7.0,7.0,79,0.00,,,0.01,VWS V15.00,2015-05-06 17:48:00,
2015-05-06 10:53:00,50.3,44.7,30.13,NW,325,0.0,2.0,81,0.00,,,0.01,VWS V15.00,2015-05-06 17:53:00,
2015-05-06 10:58:00,50.5,43.6,30.13,NNW,330,4.0,5.0,77,0.00,,,0.01,VWS V15.00,2015-05-06 17:58:00,
2015-05-06 11:03:00,50.3,43.7,30.13,NE,48,4.0,10.0,78,0.00,,,0.01,VWS V15.00,2015-05-06 18:03:00,
2015-05-06 11:08:00,50.1,43.2,30.13,WNW,292,2.0,6.0,77,0.00,,,0.01,VWS V15.00,2015-05-06 18:08:00,
2015-05-06 11:13:00,50.3,44.0,30.13,NNW,333,3.0,3.0,79,0.00,,,0.01,VWS V15.00,2015-05-06 18:13:00,
2015-05-06 11:18:00,50.6,44.0,30.13,NW,319,4.0,5.0,78,0.00,,,0.01,VWS V15.00,2015-05-06 18:18:00,
2015-05-06 11:23:00,50.4,43.1,30.13,NNW,328,4.0,6.0,76,0.00,,,0.01,VWS V15.00,2015-05-06 18:23:00,
2015-05-06 11:28:00,50.3,43.7,30.13,NNW,335,3.0,5.0,78,0.00,,,0.01,VWS V15.00,2015-05-06 18:28:00,
2015-05-06 11:33:00,50.5,43.9,30.13,NNE,26,3.0,4.0,78,0.00,,,0.01,VWS V15.00,2015-05-06 18:33:00,
2015-05-06 11:38:00,51.0,44.0,30.13,ENE,77,1.0,3.0,77,0.00,,,0.01,VWS V15.00,2015-05-06 18:38:00,
2015-05-06 11:43:00,51.7,44.0,30.13,NW,309,4.0,6.0,75,0.00,,,0.01,VWS V15.00,2015-05-06 18:43:00,
2015-05-06 11:48:00,51.4,44.1,30.13,North,356,1.0,4.0,76,0.00,,,0.01,VWS V15.00,2015-05-06 18:48:00,
2015-05-06 11:53:00,51.7,43.7,30.13,NW,324,6.0,6.0,74,0.00,,,0.01,VWS V15.00,2015-05-06 18:53:00,
2015-05-06 11:58:00,51.1,44.2,30.13,NNW,348,1.0,1.0,77,0.00,,,0.01,VWS V15.00,2015-05-06 18:58:00,
2015-05-06 12:03:00,51.5,44.2,30.13,NW,323,6.0,7.0,76,0.00,,,0.01,VWS V15.00,2015-05-06 19:03:00,
2015-05-06 12:08:00,51.7,44.0,30.13,NNW,338,5.0,6.0,75,0.00,,,0.01,VWS V15.00,2015-05-06 19:08:00,
2015-05-06 12:13:00,51.7,44.0,30.12,North,1,3.0,3.0,75,0.00,,,0.01,VWS V15.00,2015-05-06 19:13:00,
2015-05-06 12:18:00,52.0,44.0,30.12,West,279,0.0,2.0,74,0.00,,,0.01,VWS V15.00,2015-05-06 19:18:00,
2015-05-06 12:23:00,52.3,43.9,30.12,WNW,297,3.0,5.0,73,0.00,,,0.01,VWS V15.00,2015-05-06 19:23:00,
2015-05-06 12:28:00,52.4,43.7,30.12,WSW,250,0.0,1.0,72,0.00,,,0.01,VWS V15.00,2015-05-06 19:28:00,
2015-05-06 12:33:00,52.6,44.2,30.12,WNW,302,5.0,5.0,73,0.00,,,0.01,VWS V15.00,2015-05-06 19:33:00,
2015-05-06 12:38:00,52.8,44.4,30.12,NW,312,1.0,3.0,73,0.00,,,0.01,VWS V15.00,2015-05-06 19:38:00,
2015-05-06 12:43:00,52.8,44.0,30.12,North,359,0.0,5.0,72,0.00,,,0.01,VWS V15.00,2015-05-06 19:43:00,
2015-05-06 12:48:00,53.1,44.0,30.12,NW,319,4.0,6.0,71,0.00,,,0.01,VWS V15.00,2015-05-06 19:48:00,
2015-05-06 12:53:00,53.4,44.2,30.11,NNW,341,1.0,1.0,71,0.00,,,0.01,VWS V15.00,2015-05-06 19:53:00,
2015-05-06 12:58:00,53.8,44.3,30.11,NW,322,2.0,4.0,70,0.00,,,0.01,VWS V15.00,2015-05-06 19:58:00,
2015-05-06 13:03:00,53.8,44.6,30.11,NNE,20,5.0,8.0,71,0.00,,,0.01,VWS V15.00,2015-05-06 20:03:00,
2015-05-06 13:08:00,54.3,45.1,30.11,WNW,285,3.0,7.0,71,0.00,,,0.01,VWS V15.00,2015-05-06 20:08:00,
2015-05-06 13:13:00,54.8,44.5,30.11,ENE,76,1.0,6.0,68,0.00,,,0.01,VWS V15.00,2015-05-06 20:13:00,
2015-05-06 13:18:00,54.9,43.8,30.11,North,2,0.0,2.0,66,0.00,,,0.01,VWS V15.00,2015-05-06 20:18:00,
2015-05-06 13:23:00,55.0,44.3,30.11,NW,314,2.0,2.0,67,0.00,,,0.01,VWS V15.00,2015-05-06 20:23:00,
2015-05-06 13:28:00,55.3,43.8,30.11,NW,323,3.0,7.0,65,0.00,,,0.01,VWS V15.00,2015-05-06 20:28:00,
2015-05-06 13:33:00,55.3,44.2,30.11,WNW,287,3.0,8.0,66,0.00,,,0.01,VWS V15.00,2015-05-06 20:33:00,
2015-05-06 13:38:00,55.3,44.9,30.11,East,91,3.0,3.0,68,0.00,,,0.01,VWS V15.00,2015-05-06 20:38:00,
2015-05-06 13:43:00,56.1,44.9,30.11,NNE,29,2.0,2.0,66,0.00,,,0.01,VWS V15.00,2015-05-06 20:43:00,
2015-05-06 13:48:00,56.1,43.7,30.11,NW,318,5.0,7.0,63,0.00,,,0.01,VWS V15.00,2015-05-06 20:48:00,
2015-05-06 13:53:00,55.5,44.3,30.10,NW,314,2.0,5.0,66,0.00,,,0.01,VWS V15.00,2015-05-06 20:53:00,
2015-05-06 13:58:00,55.5,43.1,30.10,NNW,329,6.0,8.0,63,0.00,,,0.01,VWS V15.00,2015-05-06 20:58:00,
2015-05-06 14:03:00,56.3,44.7,30.10,North,349,4.0,5.0,65,0.00,,,0.01,VWS V15.00,2015-05-06 21:03:00,
2015-05-06 14:08:00,56.1,42.8,30.10,NW,309,6.0,14.0,61,0.00,,,0.01,VWS V15.00,2015-05-06 21:08:00,
2015-05-06 14:13:00,55.8,43.8,30.10,North,4,4.0,7.0,64,0.00,,,0.01,VWS V15.00,2015-05-06 21:13:00,
2015-05-06 14:18:00,56.1,44.1,30.10,WNW,298,5.0,8.0,64,0.00,,,0.01,VWS V15.00,2015-05-06 21:18:00,
2015-05-06 14:23:00,56.4,44.0,30.10,NNE,22,7.0,8.0,63,0.00,,,0.01,VWS V15.00,2015-05-06 21:23:00,
2015-05-06 14:28:00,56.5,44.1,30.10,NNW,336,9.0,13.0,63,0.00,,,0.01,VWS V15.00,2015-05-06 21:28:00,
2015-05-06 14:33:00,56.7,43.8,30.09,NW,320,5.0,7.0,62,0.00,,,0.01,VWS V15.00,2015-05-06 21:33:00,
2015-05-06 14:38:00,56.9,43.2,30.09,NE,34,4.0,9.0,60,0.00,,,0.01,VWS V15.00,2015-05-06 21:38:00,
2015-05-06 14:43:00,56.7,43.0,30.09,NW,326,1.0,5.0,60,0.00,,,0.01,VWS V15.00,2015-05-06 21:43:00,
2015-05-06 14:48:00,57.2,43.0,30.09,North,354,4.0,5.0,59,0.00,,,0.01,VWS V15.00,2015-05-06 21:48:00,
2015-05-06 14:53:00,57.6,43.4,30.09,NNW,335,2.0,4.0,59,0.00,,,0.01,VWS V15.00,2015-05-06 21:53:00,
2015-05-06 14:58:00,57.8,42.7,30.09,NW,310,6.0,10.0,57,0.00,,,0.01,VWS V15.00,2015-05-06 21:58:00,
2015-05-06 15:03:00,57.8,42.2,30.09,NW,310,4.0,7.0,56,0.00,,,0.01,VWS V15.00,2015-05-06 22:03:00,
2015-05-06 15:08:00,57.6,42.0,30.10,NW,311,7.0,10.0,56,0.00,,,0.01,VWS V15.00,2015-05-06 22:08:00,
2015-05-06 15:13:00,57.4,42.3,30.09,NNW,340,5.0,8.0,57,0.00,,,0.01,VWS V15.00,2015-05-06 22:13:00,
2015-05-06 15:18:00,57.4,41.8,30.09,NW,322,2.0,11.0,56,0.00,,,0.01,VWS V15.00,2015-05-06 22:18:00,
2015-05-06 15:23:00,57.6,42.5,30.09,North,359,8.0,8.0,57,0.00,,,0.01,VWS V15.00,2015-05-06 22:23:00,
2015-05-06 15:28:00,57.4,41.4,30.09,NW,314,12.0,13.0,55,0.00,,,0.01,VWS V15.00,2015-05-06 22:28:00,
2015-05-06 15:33:00,57.5,41.9,30.09,NNW,329,13.0,13.0,56,0.00,,,0.01,VWS V15.00,2015-05-06 22:33:00,
2015-05-06 15:38:00,57.3,40.3,30.09,NNW,341,8.0,14.0,53,0.00,,,0.01,VWS V15.00,2015-05-06 22:38:00,
2015-05-06 15:43:00,57.2,40.7,30.09,SE,141,3.0,5.0,54,0.00,,,0.01,VWS V15.00,2015-05-06 22:43:00,
2015-05-06 15:48:00,57.4,39.9,30.08,NE,51,5.0,11.0,52,0.00,,,0.01,VWS V15.00,2015-05-06 22:48:00,
2015-05-06 15:53:00,57.8,41.3,30.09,NNW,338,6.0,7.0,54,0.00,,,0.01,VWS V15.00,2015-05-06 22:53:00,
2015-05-06 15:58:00,58.3,40.8,30.08,NNW,345,7.0,10.0,52,0.00,,,0.01,VWS V15.00,2015-05-06 22:58:00,
2015-05-06 16:03:00,58.2,41.2,30.09,NW,321,12.0,12.0,53,0.00,,,0.01,VWS V15.00,2015-05-06 23:03:00,
2015-05-06 16:08:00,58.0,40.5,30.08,NNW,338,7.0,9.0,52,0.00,,,0.01,VWS V15.00,2015-05-06 23:08:00,
2015-05-06 16:13:00,58.3,40.8,30.08,NW,322,5.0,5.0,52,0.00,,,0.01,VWS V15.00,2015-05-06 23:13:00,
2015-05-06 16:18:00,58.3,40.3,30.08,NNE,29,4.0,6.0,51,0.00,,,0.01,VWS V15.00,2015-05-06 23:18:00,
2015-05-06 16:23:00,58.2,40.2,30.08,NNW,338,8.0,9.0,51,0.00,,,0.01,VWS V15.00,2015-05-06 23:23:00,
2015-05-06 16:28:00,58.4,39.8,30.08,North,1,6.0,6.0,50,0.00,,,0.01,VWS V15.00,2015-05-06 23:28:00,
2015-05-06 16:33:00,58.2,39.7,30.08,NW,326,2.0,6.0,50,0.00,,,0.01,VWS V15.00,2015-05-06 23:33:00,
2015-05-06 16:38:00,58.7,39.6,30.08,NNE,14,3.0,7.0,49,0.00,,,0.01,VWS V15.00,2015-05-06 23:38:00,
2015-05-06 16:43:00,58.8,39.7,30.08,NW,317,5.0,6.0,49,0.00,,,0.01,VWS V15.00,2015-05-06 23:43:00,
2015-05-06 16:48:00,58.4,39.8,30.08,NW,309,2.0,6.0,50,0.00,,,0.01,VWS V15.00,2015-05-06 23:48:00,
2015-05-06 16:53:00,58.7,40.6,30.08,NW,306,5.0,6.0,51,0.00,,,0.01,VWS V15.00,2015-05-06 23:53:00,
2015-05-06 16:58:00,58.5,38.9,30.08,WNW,298,6.0,8.0,48,0.00,,,0.01,VWS V15.00,2015-05-06 23:58:00,
2015-05-06 17:03:00,58.4,39.8,30.08,WNW,300,5.0,6.0,50,0.00,,,0.01,VWS V15.00,2015-05-07 00:03:00,
2015-05-06 17:08:00,59.1,41.0,30.07,NW,322,4.0,4.0,51,0.00,,,0.01,VWS V15.00,2015-05-07 00:08:00,
2015-05-06 17:13:00,59.1,40.0,30.07,North,3,3.0,3.0,49,0.00,,,0.01,VWS V15.00,2015-05-07 00:13:00,
2015-05-06 17:18:00,59.0,40.4,30.08,NNW,342,4.0,8.0,50,0.00,,,0.01,VWS V15.00,2015-05-07 00:18:00,
2015-05-06 17:23:00,58.6,40.0,30.07,North,358,3.0,4.0,50,0.00,,,0.01,VWS V15.00,2015-05-07 00:23:00,
2015-05-06 17:28:00,58.8,39.7,30.08,NNE,33,3.0,3.0,49,0.00,,,0.01,VWS V15.00,2015-05-07 00:28:00,
2015-05-06 17:33:00,58.6,40.0,30.08,North,4,4.0,4.0,50,0.00,,,0.01,VWS V15.00,2015-05-07 00:33:00,
2015-05-06 17:38:00,58.6,40.0,30.08,NNE,17,4.0,5.0,50,0.00,,,0.01,VWS V15.00,2015-05-07 00:38:00,
2015-05-06 17:43:00,58.5,39.9,30.08,NNE,18,6.0,12.0,50,0.00,,,0.01,VWS V15.00,2015-05-07 00:43:00,
2015-05-06 17:48:00,58.2,39.2,30.08,NNE,31,7.0,8.0,49,0.00,,,0.01,VWS V15.00,2015-05-07 00:48:00,
2015-05-06 17:53:00,58.2,39.7,30.08,NNE,20,4.0,7.0,50,0.00,,,0.01,VWS V15.00,2015-05-07 00:53:00,
2015-05-06 17:58:00,58.1,39.1,30.08,NNW,342,2.0,2.0,49,0.00,,,0.01,VWS V15.00,2015-05-07 00:58:00,
2015-05-06 18:03:00,57.9,39.9,30.08,NW,307,7.0,9.0,51,0.00,,,0.01,VWS V15.00,2015-05-07 01:03:00,
2015-05-06 18:08:00,57.8,40.3,30.08,ENE,57,2.0,4.0,52,0.00,,,0.01,VWS V15.00,2015-05-07 01:08:00,
2015-05-06 18:13:00,58.0,39.5,30.08,NW,311,2.0,4.0,50,0.00,,,0.01,VWS V15.00,2015-05-07 01:13:00,
2015-05-06 18:18:00,57.8,39.8,30.08,ENE,63,2.0,5.0,51,0.00,,,0.01,VWS V15.00,2015-05-07 01:18:00,
2015-05-06 18:23:00,57.7,40.2,30.08,NNE,27,3.0,4.0,52,0.00,,,0.01,VWS V15.00,2015-05-07 01:23:00,
2015-05-06 18:28:00,57.6,40.1,30.08,NNW,331,9.0,9.0,52,0.00,,,0.01,VWS V15.00,2015-05-07 01:28:00,
2015-05-06 18:33:00,57.3,39.8,30.08,NNE,12,13.0,13.0,52,0.00,,,0.01,VWS V15.00,2015-05-07 01:33:00,
2015-05-06 18:38:00,57.2,40.2,30.08,NNE,22,4.0,4.0,53,0.00,,,0.01,VWS V15.00,2015-05-07 01:38:00,
2015-05-06 18:43:00,57.0,40.1,30.08,North,355,6.0,7.0,53,0.00,,,0.01,VWS V15.00,2015-05-07 01:43:00,
2015-05-06 18:48:00,56.8,39.4,30.08,North,349,3.0,4.0,52,0.00,,,0.01,VWS V15.00,2015-05-07 01:48:00,
2015-05-06 18:53:00,56.8,39.9,30.08,North,350,3.0,5.0,53,0.00,,,0.01,VWS V15.00,2015-05-07 01:53:00,
2015-05-06 18:58:00,56.8,39.9,30.08,North,9,3.0,3.0,53,0.00,,,0.01,VWS V15.00,2015-05-07 01:58:00,
2015-05-06 19:03:00,56.8,40.3,30.08,NNW,338,3.0,3.0,54,0.00,,,0.01,VWS V15.00,2015-05-07 02:03:00,
2015-05-06 19:08:00,56.7,41.2,30.08,NNW,340,3.0,4.0,56,0.00,,,0.01,VWS V15.00,2015-05-07 02:08:00,
2015-05-06 19:13:00,57.2,41.7,30.08,North,353,3.0,6.0,56,0.00,,,0.01,VWS V15.00,2015-05-07 02:13:00,
2015-05-06 19:18:00,56.9,40.9,30.08,NNW,346,5.0,5.0,55,0.00,,,0.01,VWS V15.00,2015-05-07 02:18:00,
2015-05-06 19:23:00,56.5,41.0,30.08,North,8,4.0,4.0,56,0.00,,,0.01,VWS V15.00,2015-05-07 02:23:00,
2015-05-06 19:28:00,56.3,41.7,30.08,NNE,27,2.0,4.0,58,0.00,,,0.01,VWS V15.00,2015-05-07 02:28:00,
2015-05-06 19:33:00,56.2,42.1,30.08,NW,316,5.0,6.0,59,0.00,,,0.01,VWS V15.00,2015-05-07 02:33:00,
2015-05-06 19:38:00,55.9,42.2,30.09,NW,316,5.0,5.0,60,0.00,,,0.01,VWS V15.00,2015-05-07 02:38:00,
2015-05-06 19:43:00,55.6,41.5,30.09,NW,324,3.0,5.0,59,0.00,,,0.01,VWS V15.00,2015-05-07 02:43:00,
2015-05-06 19:48:00,55.4,41.3,30.09,NNE,17,4.0,6.0,59,0.00,,,0.01,VWS V15.00,2015-05-07 02:48:00,
2015-05-06 19:53:00,55.1,41.5,30.09,NW,313,1.0,5.0,60,0.00,,,0.01,VWS V15.00,2015-05-07 02:53:00,
2015-05-06 19:58:00,54.9,41.3,30.09,NW,322,2.0,3.0,60,0.00,,,0.01,VWS V15.00,2015-05-07 02:58:00,
2015-05-06 20:03:00,54.7,41.1,30.09,NNW,340,3.0,4.0,60,0.00,,,0.01,VWS V15.00,2015-05-07 03:03:00,
2015-05-06 20:08:00,54.5,41.3,30.09,North,360,2.0,5.0,61,0.00,,,0.01,VWS V15.00,2015-05-07 03:08:00,
2015-05-06 20:13:00,54.3,41.2,30.09,NNE,23,3.0,3.0,61,0.00,,,0.01,VWS V15.00,2015-05-07 03:13:00,
2015-05-06 20:18:00,54.1,41.4,30.09,NW,312,2.0,4.0,62,0.00,,,0.01,VWS V15.00,2015-05-07 03:18:00,
2015-05-06 20:23:00,53.9,41.2,30.10,North,4,2.0,4.0,62,0.00,,,0.01,VWS V15.00,2015-05-07 03:23:00,
2015-05-06 20:28:00,53.8,41.1,30.09,ENE,67,0.0,1.0,62,0.00,,,0.01,VWS V15.00,2015-05-07 03:28:00,
2015-05-06 20:33:00,53.7,41.0,30.10,NNE,19,0.0,2.0,62,0.00,,,0.01,VWS V15.00,2015-05-07 03:33:00,
2015-05-06 20:38:00,53.6,41.3,30.10,NE,52,1.0,3.0,63,0.00,,,0.01,VWS V15.00,2015-05-07 03:38:00,
2015-05-06 20:43:00,53.5,41.2,30.10,East,95,0.0,0.0,63,0.00,,,0.01,VWS V15.00,2015-05-07 03:43:00,
2015-05-06 20:48:00,53.4,41.5,30.10,ENE,65,0.0,0.0,64,0.00,,,0.01,VWS V15.00,2015-05-07 03:48:00,
2015-05-06 20:53:00,53.3,41.5,30.10,NNE,27,2.0,2.0,64,0.00,,,0.01,VWS V15.00,2015-05-07 03:53:00,
2015-05-06 20:58:00,53.2,41.8,30.11,NE,39,0.0,2.0,65,0.00,,,0.01,VWS V15.00,2015-05-07 03:58:00,
2015-05-06 21:03:00,53.1,41.7,30.11,NE,41,1.0,3.0,65,0.00,,,0.01,VWS V15.00,2015-05-07 04:03:00,
2015-05-06 21:08:00,53.0,41.6,30.11,NNE,17,1.0,1.0,65,0.00,,,0.01,VWS V15.00,2015-05-07 04:08:00,
2015-05-06 21:13:00,52.9,41.5,30.11,NNE,15,0.0,1.0,65,0.00,,,0.01,VWS V15.00,2015-05-07 04:13:00,
2015-05-06 21:18:00,52.8,41.8,30.12,NNE,30,1.0,2.0,66,0.00,,,0.01,VWS V15.00,2015-05-07 04:18:00,